FW8343 Weather Reports


time (UTC)temp
C
wind
direction
speed
KPH
gust
KPH
rain 1hr
cm
rain 24hr
cm
rain mn
cm
humidity
%
barometer
mb
20260504081013 13 212 12.9 29.0 0.00 0.00 0.00 49 996.0
20260504080511 13 176 12.9 27.4 0.00 0.00 0.00 53 996.2
20260504050510 12 202 4.8 12.9 0.00 0.00 0.00 50 1000.1
20260504045509 12 198 4.8 12.9 0.00 0.00 0.00 53 1000.5
20260504045013 12 203 3.2 12.9 0.00 0.00 0.00 50 1000.6
20260504044531 12 198 3.2 11.3 0.00 0.00 0.00 50 1000.7
20260504044010 12 225 4.8 16.1 0.00 0.00 0.00 49 1000.8
20260504043510 12 192 4.8 16.1 0.00 0.00 0.00 50 1000.9
20260504043043 12 196 4.8 16.1 0.00 0.00 0.00 51 1000.9
20260504042510 12 216 3.2 9.7 0.00 0.00 0.00 49 1001.1
20260504042013 12 224 4.8 9.7 0.00 0.00 0.00 50 1001.1
20260504041536 12 223 3.2 11.3 0.00 0.00 0.00 48 1001.2
20260504041009 12 219 4.8 11.3 0.00 0.00 0.00 50 1001.3
20260504040512 12 222 3.2 9.7 0.00 0.00 0.00 48 1001.4
20260504040032 13 213 3.2 11.3 0.00 0.00 0.00 48 1001.4
20260504035511 13 223 3.2 11.3 0.00 0.00 0.00 49 1001.6
20260504035014 12 202 3.2 12.9 0.00 0.00 0.00 50 1001.6
20260504034534 12 198 4.8 12.9 0.00 0.00 0.00 52 1001.7
20260504034013 12 196 3.2 9.7 0.00 0.00 0.00 52 1001.8
20260504033513 12 200 3.2 9.7 0.00 0.00 0.00 52 1002.0
20260504033034 12 269 1.6 6.4 0.00 0.00 0.00 56 1002.1
20260504032510 11 269 1.6 6.4 0.00 0.00 0.00 54 1002.2
20260504032015 11 269 1.6 4.8 0.00 0.00 0.00 54 1002.2
20260504031530 11 269 3.2 6.4 0.00 0.00 0.00 52 1002.4
20260504031018 11 269 1.6 6.4 0.00 0.00 0.00 52 1002.5
20260504030514 11 269 3.2 4.8 0.00 0.00 0.00 55 1002.6
20260504030034 11 269 1.6 4.8 0.00 0.00 0.00 60 1002.7
20260504025514 11 269 1.6 3.2 0.00 0.00 0.00 58 1002.8
20260504025011 11 0 0.0 3.2 0.00 0.00 0.00 55 1002.8
20260504024535 11 269 0.0 3.2 0.00 0.00 0.00 57 1002.8
20260504024011 11 0 0.0 1.6 0.00 0.00 0.00 53 1002.8
20260504023511 11 0 0.0 3.2 0.00 0.00 0.00 51 1003.0
20260504023030 11 0 0.0 3.2 0.00 0.00 0.00 50 1003.0
20260504022511 11 269 0.0 3.2 0.00 0.00 0.00 56 1003.0
20260504022013 11 0 0.0 0.0 0.00 0.00 0.00 54 1003.0
20260504021533 12 0 0.0 0.0 0.00 0.00 0.00 65 1003.1
20260504021011 12 0 0.0 0.0 0.00 0.00 0.00 47 1003.1
20260504020511 12 0 0.0 0.0 0.00 0.00 0.00 45 1003.1
20260504020031 12 0 0.0 0.0 0.00 0.00 0.00 43 1003.2
20260504015512 12 0 0.0 0.0 0.00 0.00 0.00 43 1003.2
20260504015012 13 0 0.0 0.0 0.00 0.00 0.00 45 1003.1
20260504014538 13 0 0.0 0.0 0.00 0.00 0.00 48 1003.2
20260504014009 13 0 0.0 0.0 0.00 0.00 0.00 44 1003.1
20260504013511 13 0 0.0 0.0 0.00 0.00 0.00 47 1003.1
20260504013033 14 0 0.0 0.0 0.00 0.00 0.00 41 1003.3
20260504012509 14 0 0.0 0.0 0.00 0.00 0.00 37 1003.2
20260504012010 15 0 0.0 1.6 0.00 0.00 0.00 36 1003.3
20260504011530 15 0 0.0 1.6 0.00 0.00 0.00 37 1003.3
20260504011012 15 0 0.0 3.2 0.00 0.00 0.00 38 1003.4
20260504010510 15 0 0.0 4.8 0.00 0.00 0.00 36 1003.3
20260504010030 15 269 0.0 4.8 0.00 0.00 0.00 35 1003.5
20260504005511 15 269 1.6 4.8 0.00 0.00 0.00 35 1003.3
20260504005018 16 269 1.6 4.8 0.00 0.00 0.00 35 1003.4
20260504004530 16 269 1.6 4.8 0.00 0.00 0.00 35 1003.4
20260504004014 16 269 1.6 6.4 0.00 0.00 0.00 34 1003.4
20260504003517 16 269 3.2 6.4 0.00 0.00 0.00 34 1003.4
20260504003035 16 284 3.2 6.4 0.00 0.00 0.00 33 1003.3
20260504002511 16 259 1.6 6.4 0.00 0.00 0.00 32 1003.3
20260504002016 16 268 1.6 9.7 0.00 0.00 0.00 33 1003.3
20260504001537 16 268 3.2 12.9 0.00 0.00 0.00 32 1003.3
20260504001010 17 275 4.8 12.9 0.00 0.00 0.00 32 1003.4
20260504000511 17 288 4.8 12.9 0.00 0.00 0.00 32 1003.4
20260504000032 17 267 1.6 14.5 0.00 0.00 0.00 34 1003.5
20260503235512 17 256 6.4 16.1 0.00 0.00 0.00 31 1003.5
20260503235011 17 222 8.0 16.1 0.00 0.00 0.00 30 1003.4
20260503234532 17 216 4.8 17.7 0.00 0.00 0.00 30 1003.5
20260503234012 17 261 8.0 17.7 0.00 0.00 0.00 31 1003.6
20260503233511 17 266 4.8 14.5 0.00 0.00 0.00 33 1003.5
20260503233030 17 271 4.8 19.3 0.00 0.00 0.00 32 1003.6
20260503232514 18 294 8.0 19.3 0.00 0.00 0.00 31 1003.5
20260503232014 17 217 3.2 14.5 0.00 0.00 0.00 31 1003.6
20260503231530 17 300 6.4 12.9 0.00 0.00 0.00 29 1003.6
20260503231013 18 261 4.8 14.5 0.00 0.00 0.00 31 1003.7
20260503230511 18 273 4.8 17.7 0.00 0.00 0.00 29 1003.7
20260503230034 18 273 9.7 17.7 0.00 0.00 0.00 28 1003.7
20260503225513 18 0 3.2 14.5 0.00 0.00 0.00 29 1003.6
20260503225014 18 318 3.2 14.5 0.00 0.00 0.00 30 1003.7
20260503224533 18 300 3.2 14.5 0.00 0.00 0.00 29 1003.6
20260503224012 18 277 1.6 11.3 0.00 0.00 0.00 28 1003.7
20260503223514 18 284 4.8 16.1 0.00 0.00 0.00 28 1003.7
20260503223033 18 324 4.8 19.3 0.00 0.00 0.00 27 1003.7
20260503222509 18 254 8.0 19.3 0.00 0.00 0.00 26 1003.7
20260503222015 18 268 8.0 19.3 0.00 0.00 0.00 26 1003.7
20260503221533 18 261 4.8 16.1 0.00 0.00 0.00 27 1003.6
20260503221009 18 281 4.8 14.5 0.00 0.00 0.00 31 1003.7
20260503220512 18 324 3.2 14.5 0.00 0.00 0.00 28 1003.7
20260503220032 18 286 4.8 12.9 0.00 0.00 0.00 27 1003.8
20260503215511 18 327 3.2 14.5 0.00 0.00 0.00 27 1003.7
20260503215012 18 0 3.2 16.1 0.00 0.00 0.00 26 1003.7
20260503214531 18 290 6.4 16.1 0.00 0.00 0.00 25 1003.7
20260503214012 18 265 9.7 16.1 0.00 0.00 0.00 25 1003.7
20260503213513 18 262 8.0 17.7 0.00 0.00 0.00 25 1003.8
20260503213033 18 330 6.4 17.7 0.00 0.00 0.00 27 1003.9
20260503212512 18 288 6.4 19.3 0.00 0.00 0.00 27 1003.7
20260503212013 18 216 9.7 19.3 0.00 0.00 0.00 24 1003.6
20260503211532 19 289 6.4 17.7 0.00 0.00 0.00 26 1003.8
20260503211010 18 315 3.2 16.1 0.00 0.00 0.00 27 1003.8
20260503210510 19 317 4.8 16.1 0.00 0.00 0.00 27 1003.7
20260503210033 19 272 4.8 17.7 0.00 0.00 0.00 25 1003.7
20260503205510 18 250 3.2 17.7 0.00 0.00 0.00 31 1003.6
20260503205012 18 313 4.8 19.3 0.00 0.00 0.00 27 1003.7
20260503204529 18 297 6.4 19.3 0.00 0.00 0.00 27 1003.7
20260503204017 18 280 3.2 17.7 0.00 0.00 0.00 27 1003.8
20260503203513 19 243 6.4 17.7 0.00 0.00 0.00 28 1003.8
20260503203032 18 254 6.4 19.3 0.00 0.00 0.00 26 1003.7
20260503202509 18 258 8.0 19.3 0.00 0.00 0.00 28 1003.9
20260503202011 18 305 6.4 19.3 0.00 0.00 0.00 31 1003.9
20260503201528 19 278 4.8 17.7 0.00 0.00 0.00 30 1003.9
20260503201011 19 263 3.2 17.7 0.00 0.00 0.00 32 1004.0
20260503200514 19 296 6.4 17.7 0.00 0.00 0.00 29 1004.0
20260503200028 19 265 6.4 14.5 0.00 0.00 0.00 33 1003.8
20260503195509 19 240 3.2 16.1 0.00 0.00 0.00 32 1003.9
20260503195014 20 238 8.0 16.1 0.00 0.00 0.00 32 1004.0
20260503194533 20 233 3.2 19.3 0.00 0.00 0.00 33 1004.0
20260503194009 20 267 3.2 19.3 0.00 0.00 0.00 33 1004.0
20260503193511 19 296 4.8 22.5 0.00 0.00 0.00 35 1004.0
20260503193029 20 295 4.8 22.5 0.00 0.00 0.00 32 1004.1
20260503192509 20 280 6.4 22.5 0.00 0.00 0.00 32 1004.2
20260503192010 19 245 3.2 22.5 0.00 0.00 0.00 34 1004.1
20260503191536 20 220 9.7 22.5 0.00 0.00 0.00 30 1004.1
20260503191007 20 265 6.4 22.5 0.00 0.00 0.00 34 1004.2
20260503190511 20 288 6.4 22.5 0.00 0.00 0.00 33 1004.2
20260503190028 19 281 6.4 17.7 0.00 0.00 0.00 36 1004.3
20260503185510 19 305 1.6 16.1 0.00 0.00 0.00 36 1004.3
20260503185011 20 263 6.4 16.1 0.00 0.00 0.00 36 1004.4
20260503184530 20 294 6.4 16.1 0.00 0.00 0.00 38 1004.4
20260503184010 19 262 6.4 16.1 0.00 0.00 0.00 36 1004.3
20260503183514 19 313 3.2 20.9 0.00 0.00 0.00 37 1004.4
20260503183029 19 236 3.2 22.5 0.00 0.00 0.00 41 1004.5
20260503182507 19 268 8.0 22.5 0.00 0.00 0.00 37 1004.3
20260503182013 19 265 4.8 22.5 0.00 0.00 0.00 39 1004.4
20260503181529 19 300 3.2 19.3 0.00 0.00 0.00 42 1004.6
20260503181012 19 270 6.4 19.3 0.00 0.00 0.00 38 1004.6
20260503180515 18 274 3.2 17.7 0.00 0.00 0.00 41 1004.6
20260503180043 19 279 8.0 17.7 0.00 0.00 0.00 40 1004.8
20260503175510 19 274 3.2 17.7 0.00 0.00 0.00 43 1004.8
20260503175013 18 275 6.4 17.7 0.00 0.00 0.00 41 1004.9
20260503174532 18 299 4.8 17.7 0.00 0.00 0.00 40 1004.8
20260503174010 18 288 3.2 20.9 0.00 0.00 0.00 42 1005.0
20260503173512 18 321 3.2 20.9 0.00 0.00 0.00 42 1005.1
20260503173030 18 290 4.8 14.5 0.00 0.00 0.00 44 1004.9
20260503172512 18 272 6.4 14.5 0.00 0.00 0.00 43 1005.1
20260503172011 17 276 3.2 12.9 0.00 0.00 0.00 44 1005.1
20260503171530 18 296 4.8 16.1 0.00 0.00 0.00 45 1005.1
20260503171012 17 300 4.8 17.7 0.00 0.00 0.00 47 1005.1
20260503170512 18 303 3.2 17.7 0.00 0.00 0.00 44 1005.1
20260503151009 16 258 3.2 12.9 0.00 0.00 0.00 52 1005.2
20260503150511 16 250 3.2 9.7 0.00 0.00 0.00 52 1005.1
20260503131009 11 215 0.0 4.8 0.00 0.00 0.00 71 1005.5
20260503130511 10 215 1.6 4.8 0.00 0.00 0.00 73 1005.6
20260503110510 8 0 0.0 0.0 0.00 0.00 0.00 78 1005.2
20260503090512 10 164 1.6 8.0 0.00 0.00 0.00 75 1006.1
20260503081532 11 0 0.0 6.4 0.00 0.00 0.00 75 1006.9